User: anonymous   Login
Location: Waldport
(44.4270°N, 124.0680°W)
Time: 10:53:47
(UTC-08:00)
Language:

Cosmos 1023 Rocket - Orbit

View from above orbital plane
View from above orbital plane
View from above satellite
View from above satellite

Ground track
Ground track

The orbit data is extracted from the following two-line orbital elements,

1 10962U 78063B   14324.84012310  .00000280  00000-0  95518-4 0  8985
2 10962 074.0789 152.6869 0026332 296.6849 165.7942 14.40762445910586
Epoch (UTC): 20 November 2014 20:09:46
Eccentricity: 0.0026332
inclination: 74.0789°
perigee height: 737 km
apogee height: 775 km
right ascension of ascending node: 152.6869°
argument of perigee: 296.6849°
revolutions per day: 14.40762445
mean anomaly at epoch: 165.7942°
orbit number at epoch: 91058

The dashed part of the orbit path shows where the satellite is in the earth's shadow,  

DLR